Location: Ferintosh
(52.7647°N, 112.9692°W)
Time: 21:57:37
(UTC+00:00)

Transit 2A - Pass Details

Date: 20 May 2024
Orbit: 593 x 959 km, 66.7° (Epoch: 12 June)

Event Time Altitude Azimuth Distance (km) Brightness Sun altitude
Rises 12:50:49 0° 316° (NW) 3,257 9.0 10.4°
Reaches altitude 10° 12:53:26 10° 327° (NNW) 2,389 8.5 10.8°
Maximum altitude 12:58:17 30° 28° (NNE) 1,496 8.3 11.5°
Drops below altitude 10° 13:03:31 10° 89° (E) 2,586 10.6 12.3°
Sets 13:06:27 0° 100° (E) 3,569 10.7 12.7°
